Location: Caltech
(34.1382°N, 118.1253°W)
Time: 05:56:54
(UTC-07:00)

Courier 1B - Visible Passes

Search period start: 30 March 2015 00:00
Search period end: 09 April 2015 00:00
Orbit: 963 x 1209 km, 28.3° (Epoch: 29 March)

Date Brightness Start Highest point End Pass type
(mag) Time Alt. Az. Time Alt. Az. Time Alt. Az.
30 Mar 7.9 20:25:25 10° WSW 20:32:06 52° S 20:35:26 28° ESE visible
30 Mar 9.1 22:19:29 10° W 22:22:21 25° WSW 22:22:21 25° WSW visible
31 Mar 8.1 19:31:38 10° WSW 19:38:25 50° S 19:44:50 10° E visible
31 Mar 7.9 21:25:38 10° W 21:32:02 49° SSW 21:32:02 49° SSW visible
01 Apr 7.9 20:31:46 10° WSW 20:38:31 53° S 20:41:42 29° ESE visible
01 Apr 9.3 22:26:08 10° W 22:28:36 21° WSW 22:28:36 21° WSW visible
02 Apr 8.0 19:37:53 10° WSW 19:44:50 54° S 19:51:21 10° ESE visible
02 Apr 8.2 21:32:10 10° W 21:38:15 41° SSW 21:38:15 41° SSW visible
03 Apr 8.1 20:38:13 10° W 20:44:54 47° S 20:47:55 29° SE visible
03 Apr 9.6 22:33:04 10° WSW 22:34:49 16° WSW 22:34:49 16° WSW visible
04 Apr 8.1 19:44:16 10° W 19:51:13 52° S 19:57:34 11° ESE visible
04 Apr 8.6 21:38:52 10° W 21:44:28 31° SSW 21:44:28 31° SSW visible
05 Apr 8.5 20:44:47 10° W 20:51:14 37° SSW 20:54:08 26° SSE visible
05 Apr 10.0 22:40:45 10° WSW 22:41:03 11° WSW 22:41:03 11° WSW visible
06 Apr 8.4 19:50:44 10° W 19:57:34 44° SSW 20:03:50 11° SE visible
06 Apr 9.2 21:46:00 10° WSW 21:50:44 21° SSW 21:50:44 21° SSW visible
07 Apr 9.0 20:51:37 10° WSW 20:57:27 27° SSW 21:00:26 20° SSE visible
08 Apr 8.8 19:57:22 10° W 20:03:50 34° SSW 20:09:53 10° SE visible
08 Apr 9.7 21:54:25 10° SW 21:57:05 12° SSW 21:57:05 12° SSW visible
